Orbital Elements at Epoch 2459200.5 (2020-Dec-17.0) TDB
Reference: JPL 29 (heliocentric ecliptic J2000)
Element | Value | Uncertainty (1-sigma) | Units |
e | .1790113468192526 | 3.7881e-08 | |
a | 2.22982217937106 | 7.2335e-09 | au |
q | 1.830658707874406 | 8.4267e-08 | au |
i | 6.419363979325517 | 4.0558e-06 | deg |
node | 100.9873652587365 | 3.3574e-05 | deg |
peri | 214.8063126366505 | 3.5081e-05 | deg |
M | 136.6481985980422 | 1.1799e-05 | deg |
tp | 2458738.858138719962 (2019-Sep-12.35813872) | 3.9162e-05 | TDB |
period | 1216.196567286434 3.33 | 5.918e-06 1.62e-08 | d yr |
n | .2960047821901262 | 1.4404e-09 | deg/d |
Q | 2.628985650867715 | 8.5284e-09 | au |
|
| | Orbit Determination Parameters
Additional Information
|